This demonstration page uses our WeatherBlox Daily Observations layout. Learn more.

Left ArrowRight Arrow

38.88101, -77.10428

Hourly Observations for October 23, 2022

Temp ( °F °C ) Dew Point ( °F °C ) Humidity (%) Winds ( mph kmh ) Pressure ( in mb ) Visibility ( mi km ) Precip ( " mm )
12:52 am 00:52 Mostly Cloudy 52 11.1 45 7.2 77 77 NE 6 9 30.25 1024 10 16 0.00 0.00
1:52 am 01:52 Mostly Cloudy 51 10.6 45 7.2 79 79 ENE 6 9 30.25 1024 10 16 0.00 0.00
2:52 am 02:52 Mostly Cloudy 49 9.4 45 7.2 86 86 NE 5 7 30.25 1024 10 16 0.00 0.00
3:52 am 03:52 Mostly Cloudy 50 10 46 7.8 86 86 N 6 9 30.25 1024 10 16 0.00 0.00
4:52 am 04:52 Cloudy 48 8.9 44 6.7 86 86 N 7 11 30.24 1024 10 16 0.00 0.00
5:52 am 05:52 Cloudy 48 8.9 45 7.2 89 89 N 7 11 30.24 1024 10 16 0.00 0.00
6:52 am 06:52 Cloudy 50 10 44 6.7 80 80 NNW 8 13 30.25 1024 10 16 0.00 0.00
7:52 am 07:52 Cloudy 50 10 45 7.2 83 83 N 9 15 30.24 1024 10 16 0.00 0.00
8:34 am 08:34 Cloudy 53 11.7 45 7.2 74 74 NNW 7 11 30.26 1025 10 16 0.00 0.00
8:52 am 08:52 Mostly Cloudy 54 12.2 44 6.7 69 69 N 8 13 30.26 1025 10 16 0.00 0.00
9:52 am 09:52 Cloudy 58 14.4 45 7.2 62 62 N 7 11 30.26 1025 10 16 0.00 0.00
10:52 am 10:52 Cloudy 60 15.6 49 9.4 67 67 NNE 10 17 30.26 1025 10 16 0.00 0.00
11:11 am 11:11 Cloudy with Drizzle 58 14.4 52 11.1 81 81 NE 13 20 30.26 1025 4 6 0.01 0.13
11:52 am 11:52 Cloudy 59 15 54 12.2 83 83 NNW 9 15 30.26 1025 10 16 0.01 0.13
12:52 pm 12:52 Cloudy 64 17.8 53 11.7 67 67 N 9 15 30.24 1024 10 16 0.00 0.00
1:52 pm 13:52 Cloudy 66 18.9 53 11.7 63 63 N 12 19 30.21 1023 10 16 0.00 0.00
2:52 pm 14:52 Mostly Cloudy 67 19.4 53 11.7 61 61 N 8 13 30.20 1023 10 16 0.00 0.00
3:52 pm 15:52 Cloudy 65 18.3 54 12.2 68 68 ENE 10 17 30.19 1023 10 16 0.00 0.00
4:52 pm 16:52 Cloudy 65 18.3 52 11.1 63 63 NNE 8 13 30.19 1022 10 16 0.00 0.00
5:52 pm 17:52 Cloudy 65 18.3 51 10.6 61 61 NNE 14 22 30.18 1022 10 16 0.01 0.13
6:00 pm 18:00 Cloudy with Light Rain 65 18.3 51 10.6 61 61 NNE 15 24 30.19 1022 8 13 0.01 0.13
6:16 pm 18:16 Cloudy with Light Rain 63 17.2 51 10.6 65 65 NNE 14 22 30.19 1022 5 8 0.01 0.13
6:30 pm 18:30 Cloudy with Light Rain 61 16.1 54 12.2 78 78 NE 14 22 30.19 1022 5 8 0.01 0.25
6:52 pm 18:52 Cloudy with Light Rain 60 15.6 54 12.2 80 80 N 12 19 30.20 1023 6 10 0.03 0.76
7:52 pm 19:52 Cloudy with Light Rain 59 15 55 12.8 87 87 N 10 17 30.20 1023 7 11 0.07 1.78
8:52 pm 20:52 Cloudy with Light Rain 59 15 55 12.8 87 87 NNE 12 19 30.19 1022 9 14 0.03 0.76
9:24 pm 21:24 Cloudy with Light Rain 59 15 55 12.8 87 87 NNE 12 19 30.19 1022 7 11 0.02 0.51
9:40 pm 21:40 Cloudy with Light Rain 58 14.4 55 12.8 90 90 NNE 10 17 30.19 1022 9 14 0.03 0.76
9:52 pm 21:52 Cloudy with Light Rain 58 14.4 55 12.8 90 90 NNE 10 17 30.19 1022 7 11 0.03 0.76
10:52 pm 22:52 Cloudy with Light Rain 58 14.4 55 12.8 90 90 N 8 13 30.19 1023 10 16 0.03 0.76
11:52 pm 23:52 Cloudy with Light Rain 58 14.4 55 12.8 90 90 NW 8 13 30.19 1022 7 11 0.01 0.25

Powered by AerisWeather